W3BRL Weather Reports


time (UTC)temp
C
wind
direction
speed
KPH
gust
KPH
rain 1hr
cm
rain 24hr
cm
rain mn
cm
humidity
%
barometer
mb
20260509185658 16 182 9.7 14.5 0.00 0.56 0.56 67 1006.8
20260509185154 16 186 11.3 14.5 0.00 0.56 0.56 67 1006.8
20260509184652 16 201 9.7 11.3 0.00 0.56 0.56 69 1006.7
20260509184149 16 172 6.4 9.7 0.00 0.56 0.56 69 1007.1
20260509183645 15 179 9.7 14.5 0.00 0.56 0.56 72 1006.9
20260509183140 15 196 20.9 25.7 0.00 0.56 0.56 71 1007.1
20260509182636 16 215 12.9 16.1 0.00 0.56 0.56 71 1007.2
20260509182134 15 213 8.0 12.9 0.00 0.56 0.56 74 1006.9
20260509181631 15 190 12.9 22.5 0.00 0.56 0.56 76 1007.4
20260509181129 15 258 12.9 16.1 0.00 0.56 0.56 74 1007.5
20260509180625 15 189 9.7 16.1 0.00 0.56 0.56 76 1007.3
20260509180122 14 211 9.7 12.9 0.00 0.56 0.56 76 1007.3
20260509175617 14 208 12.9 14.5 0.00 0.56 0.56 77 1007.2
20260509175115 14 207 12.9 14.5 0.00 0.56 0.56 77 1007.4
20260509174611 14 235 12.9 14.5 0.00 0.56 0.56 76 1007.3
20260509174106 14 185 11.3 20.9 0.00 0.56 0.56 77 1007.2
20260509173601 14 213 9.7 12.9 0.00 0.56 0.56 78 1007.1
20260509173058 14 150 6.4 11.3 0.00 0.56 0.56 79 1007.2
20260509172555 14 183 8.0 9.7 0.00 0.56 0.56 77 1007.1
20260509172050 15 196 11.3 12.9 0.00 0.56 0.56 77 1006.9
20260509171546 15 172 14.5 20.9 0.00 0.56 0.56 78 1006.8
20260509171043 14 219 8.0 12.9 0.00 0.56 0.56 78 1006.8
20260509170539 14 192 8.0 14.5 0.00 0.56 0.56 77 1006.8
20260509170035 14 187 9.7 14.5 0.00 0.56 0.56 79 1006.8
20260509165534 15 217 9.7 11.3 0.00 0.56 0.56 78 1006.8
20260509165029 14 150 11.3 16.1 0.00 0.56 0.56 80 1006.9
20260509164526 13 204 9.7 12.9 0.00 0.56 0.56 82 1006.7
20260509164021 13 212 8.0 9.7 0.00 0.56 0.56 82 1006.7
20260509163519 13 195 14.5 17.7 0.00 0.56 0.56 86 1006.7
20260509163014 13 239 14.5 20.9 0.00 0.56 0.56 87 1006.6
20260509162512 13 186 4.8 6.4 0.00 0.56 0.56 92 1006.7
20260509162008 12 198 8.0 11.3 0.00 0.56 0.56 94 1006.8
20260509161504 12 178 6.4 9.7 0.00 0.56 0.56 94 1006.9
20260509160959 12 181 3.2 4.8 0.00 0.56 0.56 95 1006.8
20260509160455 11 170 9.7 11.3 0.00 0.56 0.56 95 1006.8
20260509155956 11 193 8.0 11.3 0.00 0.56 0.56 95 1006.8
20260509155453 11 206 9.7 12.9 0.00 0.56 0.56 94 1007.2
20260509154949 11 230 8.0 9.7 0.13 0.56 0.56 94 1007.1
20260509154445 11 202 6.4 9.7 0.13 0.56 0.56 94 1006.8
20260509153943 11 220 4.8 4.8 0.00 0.53 0.53 94 1006.9
20260509153439 11 210 8.0 11.3 0.00 0.53 0.53 94 1006.7
20260509152937 11 205 4.8 4.8 0.00 0.53 0.53 94 1006.5
20260509152432 11 185 3.2 3.2 0.00 0.53 0.53 94 1006.4
20260509151930 11 191 6.4 6.4 0.00 0.53 0.53 95 1006.6
20260509151426 11 194 6.4 6.4 0.00 0.53 0.53 95 1006.5
20260509150924 11 178 3.2 4.8 0.00 0.53 0.53 95 1006.8
20260509150421 11 192 9.7 14.5 0.00 0.53 0.53 95 1006.7
20260509145920 11 209 9.7 11.3 0.00 0.53 0.53 95 1006.8
20260509145419 11 197 12.9 14.5 0.00 0.53 0.53 95 1006.9
20260509144915 11 195 4.8 6.4 0.00 0.53 0.53 95 1006.8
20260509144412 11 202 6.4 11.3 0.00 0.53 0.53 95 1006.7
20260509143909 11 193 4.8 6.4 0.00 0.53 0.53 95 1006.7
20260509143407 11 211 9.7 12.9 0.18 0.53 0.53 95 1006.7
20260509142903 10 191 8.0 11.3 0.18 0.53 0.53 96 1006.6
20260509142359 10 198 4.8 6.4 0.00 0.51 0.51 96 1006.9
20260509141855 10 177 3.2 4.8 0.00 0.51 0.51 96 1006.8
20260509141352 10 117 8.0 11.3 0.00 0.51 0.51 96 1006.5
20260509140848 10 182 9.7 12.9 0.00 0.51 0.51 96 1006.8
20260509140346 10 179 6.4 11.3 0.00 0.51 0.51 96 1006.9
20260509135844 10 176 12.9 17.7 0.00 0.51 0.51 96 1006.9
20260509135341 10 161 12.9 14.5 0.00 0.51 0.51 96 1006.8
20260509134838 10 176 3.2 4.8 0.00 0.51 0.51 96 1006.9
20260509134335 10 177 6.4 9.7 0.00 0.51 0.51 96 1007.3
20260509133832 10 184 11.3 14.5 0.13 0.51 0.51 96 1007.2
20260509133329 10 179 8.0 9.7 0.13 0.51 0.51 96 1007.2
20260509132828 10 197 9.7 12.9 0.00 0.48 0.48 96 1007.2
20260509132326 10 161 6.4 6.4 0.18 0.48 0.48 96 1007.1
20260509131822 10 194 4.8 4.8 0.36 0.48 0.48 96 1007.1
20260509131319 10 151 8.0 9.7 0.30 0.46 0.46 96 1007.2
20260509130815 10 140 4.8 6.4 0.30 0.43 0.43 96 1007.1
20260509130311 10 175 6.4 6.4 0.30 0.41 0.41 96 1007.2
20260509125808 10 187 6.4 6.4 0.13 0.38 0.38 95 1007.1
20260509125307 10 215 11.3 12.9 0.00 0.36 0.36 95 1007.4
20260509124801 10 166 6.4 9.7 0.00 0.36 0.36 95 1007.3
20260509124257 10 176 3.2 4.8 0.30 0.36 0.36 95 1007.2
20260509123756 10 206 9.7 11.3 0.30 0.36 0.36 95 1007.4
20260509123253 10 206 9.7 12.9 0.30 0.33 0.33 95 1007.4
20260509122748 10 220 8.0 11.3 0.30 0.30 0.30 95 1007.5
20260509122245 10 178 8.0 11.3 0.30 0.28 0.28 94 1007.4
20260509121742 10 163 9.7 12.9 0.18 0.25 0.25 94 1007.3
20260509121239 10 192 9.7 11.3 0.18 0.25 0.25 94 1007.5
20260509120737 10 161 11.3 12.9 0.00 0.23 0.23 94 1007.2
20260509120235 10 199 4.8 4.8 0.13 0.23 0.23 94 1007.4
20260509115733 10 178 9.7 14.5 0.13 0.23 0.23 94 1007.5
20260509115230 10 182 11.3 14.5 0.18 0.20 0.20 93 1007.2
20260509114728 10 200 8.0 11.3 0.30 0.20 0.20 93 1007.2
20260509114226 10 202 11.3 14.5 0.30 0.18 0.18 93 1007.3
20260509113725 10 202 6.4 11.3 0.36 0.15 0.15 92 1007.1
20260509113222 10 200 9.7 12.9 0.18 0.13 0.13 92 1007.3
20260509112718 10 194 14.5 16.1 0.00 0.10 0.10 92 1007.1
20260509112216 10 158 12.9 16.1 0.00 0.10 0.10 92 1007.2
20260509111712 10 201 12.9 14.5 0.00 0.10 0.10 92 1007.2
20260509111209 10 181 11.3 14.5 0.13 0.10 0.10 92 1007.3
20260509110707 10 188 8.0 12.9 0.13 0.10 0.10 92 1007.1
20260509110203 10 161 8.0 9.7 0.13 0.10 0.10 92 1006.9
20260509105701 10 167 9.7 12.9 0.00 0.08 0.08 91 1006.8
20260509105158 10 202 6.4 9.7 0.00 0.08 0.08 91 1006.9
20260509104655 10 190 9.7 12.9 0.00 0.08 0.08 91 1006.9
20260509104152 10 175 6.4 9.7 0.00 0.08 0.08 91 1006.9
20260509103650 10 199 12.9 16.1 0.00 0.08 0.08 91 1006.9
20260509103148 10 206 11.3 14.5 0.00 0.08 0.08 92 1006.8
20260509102646 10 176 6.4 12.9 0.00 0.08 0.08 91 1007.1
20260509102142 10 211 11.3 14.5 0.00 0.08 0.08 92 1006.9
20260509101638 10 170 17.7 20.9 0.18 0.08 0.08 91 1006.6
20260509101135 10 134 11.3 14.5 0.18 0.08 0.08 91 1006.7
20260509100633 10 151 8.0 14.5 0.00 0.05 0.05 91 1006.7
20260509100130 10 208 9.7 11.3 0.00 0.05 0.05 90 1007.1
20260509095626 10 191 12.9 14.5 0.00 0.05 0.05 90 1006.9
20260509095124 10 192 8.0 9.7 0.00 0.05 0.05 90 1007.1
20260509094619 10 160 14.5 17.7 0.13 0.05 0.05 90 1007.2
20260509094117 10 187 4.8 6.4 0.13 0.05 0.05 90 1007.2
20260509093616 10 193 6.4 11.3 0.13 0.05 0.05 90 1007.2
20260509093112 10 186 6.4 6.4 0.00 0.03 0.03 90 1007.3
20260509092610 10 158 6.4 6.4 0.00 0.03 0.03 91 1007.3
20260509092108 10 148 4.8 4.8 0.00 0.03 0.03 92 1007.5
20260509091606 9 142 9.7 11.3 0.00 0.03 0.03 93 1007.5
20260509091102 9 197 6.4 9.7 0.18 0.03 0.03 94 1007.5
20260509090600 8 168 6.4 6.4 0.18 0.03 0.03 94 1007.5
20260509090057 8 155 3.2 3.2 0.00 0.00 0.00 94 1007.5
20260509085554 8 156 9.7 12.9 0.00 0.00 0.00 94 1007.6
20260509085050 8 151 4.8 6.4 0.00 0.00 0.00 94 1007.3
20260509084547 8 155 6.4 11.3 0.00 0.00 0.00 94 1007.4
20260509084044 8 148 6.4 6.4 0.00 0.00 0.00 93 1007.5
20260509083542 8 176 4.8 6.4 0.00 0.00 0.00 93 1007.4
20260509083038 8 162 6.4 6.4 0.00 0.00 0.00 93 1007.2
20260509082536 8 154 4.8 4.8 0.00 0.00 0.00 93 1007.3
20260509082033 8 167 1.6 3.2 0.00 0.00 0.00 93 1007.3
20260509081530 8 170 0.0 0.0 0.00 0.00 0.00 93 1007.5
20260509081027 8 167 0.0 0.0 0.00 0.00 0.00 92 1007.4
20260509080525 8 186 1.6 1.6 0.00 0.00 0.00 92 1007.4
20260509080023 8 194 3.2 3.2 0.00 0.00 0.00 92 1007.3
20260509075519 8 220 6.4 6.4 0.00 0.00 0.00 92 1007.4
20260509075018 8 182 1.6 1.6 0.00 0.00 0.00 92 1007.3
20260509074514 8 187 3.2 3.2 0.00 0.00 0.00 92 1006.9
20260509074011 8 190 1.6 1.6 0.00 0.00 0.00 91 1006.9
20260509073507 9 195 3.2 3.2 0.00 0.00 0.00 91 1006.9
20260509073004 9 176 0.0 0.0 0.00 0.00 0.00 90 1006.9
20260509072501 9 172 0.0 0.0 0.00 0.00 0.00 90 1006.8
20260509071957 9 172 0.0 0.0 0.00 0.00 0.00 90 1006.7
20260509071454 9 169 0.0 0.0 0.00 0.00 0.00 90 1006.8
20260509070952 9 166 1.6 1.6 0.00 0.00 0.00 89 1006.7
20260509070449 9 165 1.6 1.6 0.00 0.00 0.00 90 1006.9
20260509065944 9 145 4.8 4.8 0.00 0.00 0.00 90 1006.8
20260509065440 9 144 6.4 6.4 0.00 0.00 0.00 90 1006.9
20260509064936 9 155 3.2 4.8 0.00 0.00 0.00 90 1007.2
20260509064434 9 122 3.2 4.8 0.00 0.00 0.00 90 1007.1
20260509063933 9 135 3.2 4.8 0.00 0.00 0.00 90 1007.2
20260509063433 9 156 4.8 4.8 0.00 0.00 0.00 90 1007.4
20260509062930 9 162 8.0 9.7 0.00 0.00 0.00 90 1007.5
20260509062428 8 140 6.4 6.4 0.00 0.00 0.00 91 1007.6
20260509061925 8 165 1.6 1.6 0.00 0.00 0.00 91 1007.7
20260509061423 8 147 1.6 3.2 0.00 0.00 0.00 91 1007.6
20260509060919 8 170 3.2 3.2 0.00 0.00 0.00 91 1007.8
20260509060417 8 165 4.8 4.8 0.00 0.00 0.00 91 1008.0
20260509055911 8 165 6.4 11.3 0.00 0.00 0.00 91 1008.0
20260509055407 8 114 6.4 6.4 0.00 0.00 0.00 91 1007.9
20260509054904 8 159 4.8 6.4 0.00 0.00 0.00 92 1008.0
20260509054401 9 144 3.2 4.8 0.00 0.00 0.00 92 1008.0
20260509053859 9 166 0.0 0.0 0.00 0.00 0.00 92 1008.2
20260509053356 9 136 6.4 6.4 0.00 0.00 0.00 91 1008.3
20260509052855 9 151 3.2 4.8 0.00 0.00 0.00 91 1008.0
20260509052351 9 159 0.0 0.0 0.00 0.00 0.00 91 1008.2
20260509051849 9 170 1.6 1.6 0.00 0.00 0.00 91 1008.1
20260509051347 9 145 3.2 4.8 0.00 0.00 0.00 91 1008.2
20260509050843 9 129 6.4 6.4 0.00 0.00 0.00 91 1008.3
20260509050340 9 147 1.6 3.2 0.00 0.00 0.00 91 1008.2
20260509045837 9 153 3.2 4.8 0.00 0.00 0.00 91 1008.4
20260509045334 9 113 3.2 4.8 0.00 0.00 0.00 91 1008.4
20260509044831 9 170 0.0 0.0 0.00 0.00 0.00 91 1008.3
20260509044329 9 156 3.2 3.2 0.00 0.00 0.00 91 1008.4
20260509043825 9 149 1.6 3.2 0.00 0.00 0.00 90 1008.3
20260509043321 9 134 3.2 3.2 0.00 0.00 0.00 90 1008.4
20260509042817 9 100 3.2 4.8 0.00 0.00 0.00 90 1008.4
20260509042314 9 150 3.2 3.2 0.00 0.00 0.00 90 1008.7
20260509041810 9 145 3.2 4.8 0.00 0.00 0.00 90 1008.8
20260509041308 9 114 3.2 4.8 0.00 0.00 0.00 90 1009.0
20260509040806 9 129 3.2 3.2 0.00 0.00 0.00 90 1009.0
20260509040303 9 93 4.8 4.8 0.00 0.00 0.00 90 1008.9
20260509035800 9 135 3.2 4.8 0.00 0.05 0.05 91 1009.2
20260509035257 9 139 1.6 3.2 0.00 0.05 0.05 91 1009.3
20260509034753 9 159 3.2 3.2 0.00 0.05 0.05 91 1009.3
20260509034251 9 121 3.2 4.8 0.00 0.05 0.05 91 1009.3
20260509033748 9 130 1.6 3.2 0.00 0.05 0.05 91 1009.4
20260509033245 9 165 0.0 1.6 0.00 0.05 0.05 91 1009.7
20260509032742 9 160 0.0 0.0 0.00 0.05 0.05 90 1009.5
20260509032239 9 163 0.0 1.6 0.00 0.05 0.05 90 1009.9
20260509031736 9 166 0.0 0.0 0.00 0.05 0.05 90 1009.7
20260509031234 9 153 1.6 3.2 0.00 0.05 0.05 89 1009.9
20260509030731 10 131 1.6 3.2 0.00 0.05 0.05 89 1009.9
20260509030229 10 168 0.0 0.0 0.00 0.05 0.05 88 1010.0
20260509025726 10 157 1.6 1.6 0.13 0.05 0.05 87 1010.0
20260509025221 10 177 0.0 0.0 0.13 0.05 0.05 87 1010.2
20260509024717 10 177 0.0 0.0 0.00 0.03 0.03 86 1010.3
20260509024213 10 180 1.6 1.6 0.00 0.03 0.03 86 1010.2
20260509023710 10 172 0.0 0.0 0.00 0.03 0.03 85 1010.3
20260509023207 10 138 3.2 4.8 0.00 0.03 0.03 86 1010.1
20260509022703 10 170 0.0 0.0 0.00 0.03 0.03 86 1010.2
20260509022201 10 134 3.2 3.2 0.00 0.03 0.03 85 1010.1
20260509021658 10 161 0.0 0.0 0.18 0.03 0.03 86 1009.7
20260509021155 10 172 0.0 0.0 0.18 0.03 0.03 85 1010.0
20260509020653 10 164 3.2 3.2 0.00 0.00 0.00 84 1009.7
20260509020150 10 165 1.6 1.6 0.00 0.00 0.00 84 1009.6
20260509015649 10 174 0.0 0.0 0.00 0.00 0.00 85 1009.4
20260509015146 10 160 0.0 0.0 0.00 0.00 0.00 85 1009.3
20260509014642 10 151 1.6 3.2 0.00 0.00 0.00 84 1009.4
20260509014139 10 40 4.8 4.8 0.00 0.00 0.00 84 1009.3
20260509013636 10 154 1.6 1.6 0.00 0.00 0.00 84 1009.3
20260509013131 10 164 0.0 1.6 0.00 0.00 0.00 83 1009.3
20260509012628 10 176 3.2 3.2 0.00 0.00 0.00 83 1009.2
20260509012125 10 138 4.8 6.4 0.00 0.00 0.00 83 1009.1
20260509011623 10 98 4.8 4.8 0.00 0.00 0.00 83 1008.9
20260509011120 10 164 1.6 1.6 0.00 0.00 0.00 83 1008.9
20260509010618 10 170 1.6 3.2 0.00 0.00 0.00 82 1009.0
20260509010114 11 163 0.0 0.0 0.00 0.00 0.00 82 1008.7
20260509005612 11 135 1.6 3.2 0.00 0.00 0.00 81 1008.8
20260509005107 11 189 4.8 4.8 0.00 0.00 0.00 81 1008.6
20260509004604 11 125 1.6 3.2 0.00 0.00 0.00 79 1008.6
20260509004101 11 166 0.0 0.0 0.00 0.00 0.00 79 1008.6
20260509003559 11 175 1.6 3.2 0.00 0.00 0.00 80 1008.6
20260509003056 11 112 4.8 6.4 0.00 0.00 0.00 80 1008.7
20260509002554 11 157 3.2 3.2 0.00 0.00 0.00 80 1008.5
20260509002051 11 139 3.2 3.2 0.00 0.00 0.00 80 1008.6
20260509001548 11 109 6.4 6.4 0.00 0.00 0.00 79 1008.7
20260509001044 11 152 4.8 4.8 0.00 0.00 0.00 78 1008.4
20260509000543 11 144 1.6 3.2 0.00 0.00 0.00 78 1008.7
20260509000038 11 157 3.2 3.2 0.00 0.00 0.00 78 1008.7
20260508235536 11 166 1.6 3.2 0.00 0.00 0.00 77 1008.6
20260508235032 11 159 0.0 0.0 0.00 0.00 0.00 78 1008.6
20260508234530 11 121 4.8 4.8 0.00 0.00 0.00 78 1008.6
20260508234027 11 165 1.6 3.2 0.00 0.00 0.00 78 1008.8
20260508233526 11 147 0.0 1.6 0.00 0.00 0.00 78 1008.7
20260508233023 11 167 0.0 0.0 0.00 0.00 0.00 77 1009.2
20260508232520 12 159 1.6 1.6 0.00 0.00 0.00 76 1008.8
20260508232017 12 157 1.6 1.6 0.00 0.00 0.00 76 1008.8
20260508231514 12 142 1.6 3.2 0.00 0.00 0.00 76 1008.8
20260508231011 12 162 0.0 1.6 0.00 0.00 0.00 75 1008.6
20260508230508 12 158 1.6 1.6 0.00 0.00 0.00 75 1008.6
20260508230005 12 165 0.0 0.0 0.00 0.00 0.00 75 1008.8
20260508225502 12 151 4.8 4.8 0.00 0.00 0.00 73 1008.9
20260508224959 12 161 0.0 1.6 0.00 0.00 0.00 73 1008.9
20260508224456 12 123 0.0 1.6 0.00 0.00 0.00 73 1009.0
20260508223953 12 158 1.6 1.6 0.00 0.00 0.00 72 1008.9
20260508223451 12 69 6.4 6.4 0.00 0.00 0.00 69 1009.0
20260508222948 12 128 3.2 4.8 0.00 0.00 0.00 66 1008.9
20260508222446 12 163 1.6 3.2 0.00 0.00 0.00 65 1008.8
20260508221942 12 170 0.0 0.0 0.00 0.00 0.00 66 1008.7
20260508221438 13 182 0.0 0.0 0.00 0.00 0.00 64 1008.8
20260508220934 13 174 0.0 0.0 0.00 0.00 0.00 62 1008.9
20260508220431 13 180 1.6 1.6 0.00 0.00 0.00 61 1008.9
20260508215927 13 199 3.2 3.2 0.00 0.00 0.00 59 1008.9
20260508215425 13 182 1.6 1.6 0.00 0.00 0.00 61 1008.9
20260508214921 13 183 3.2 3.2 0.00 0.00 0.00 60 1008.9
20260508214419 13 187 3.2 3.2 0.00 0.00 0.00 61 1008.8
20260508213914 13 182 3.2 3.2 0.00 0.00 0.00 60 1008.8
20260508213412 13 183 6.4 9.7 0.00 0.00 0.00 60 1008.8
20260508212908 13 184 3.2 3.2 0.00 0.00 0.00 61 1008.9
20260508212404 13 175 1.6 3.2 0.00 0.00 0.00 61 1008.9
20260508211900 13 175 3.2 4.8 0.00 0.00 0.00 61 1008.8
20260508211356 13 175 3.2 4.8 0.00 0.00 0.00 62 1009.2
20260508210854 13 191 0.0 1.6 0.00 0.00 0.00 63 1009.1
20260508210350 12 172 0.0 0.0 0.00 0.00 0.00 64 1009.1
20260508205847 12 185 3.2 3.2 0.00 0.00 0.00 63 1009.2
20260508205343 13 193 6.4 6.4 0.00 0.00 0.00 66 1009.2
20260508204839 12 176 3.2 3.2 0.00 0.00 0.00 67 1009.3
20260508204337 12 178 0.0 0.0 0.00 0.00 0.00 69 1009.4
20260508203832 12 178 1.6 1.6 0.00 0.00 0.00 69 1009.4
20260508203329 12 191 4.8 4.8 0.00 0.00 0.00 68 1009.4
20260508202824 12 183 1.6 1.6 0.00 0.00 0.00 68 1009.6
20260508202322 12 183 6.4 9.7 0.00 0.00 0.00 68 1009.6
20260508201819 12 206 1.6 3.2 0.00 0.00 0.00 67 1009.7
20260508201316 12 200 4.8 6.4 0.00 0.00 0.00 66 1009.9
20260508200813 12 168 1.6 3.2 0.00 0.00 0.00 66 1010.0
20260508200309 12 176 0.0 1.6 0.00 0.00 0.00 66 1010.2
20260508195805 12 168 1.6 3.2 0.00 0.00 0.00 65 1010.3
20260508195305 12 236 4.8 6.4 0.00 0.00 0.00 66 1010.4
20260508194758 12 208 6.4 6.4 0.00 0.00 0.00 65 1010.4
20260508194255 12 198 4.8 6.4 0.00 0.00 0.00 63 1010.6
20260508193753 12 270 11.3 12.9 0.00 0.00 0.00 61 1010.5
20260508193249 12 247 12.9 16.1 0.00 0.00 0.00 60 1010.6
20260508192745 13 197 3.2 4.8 0.00 0.00 0.00 61 1010.6
20260508192243 13 302 9.7 11.3 0.00 0.00 0.00 59 1010.5
20260508191740 13 241 9.7 14.5 0.00 0.00 0.00 58 1010.4
20260508191237 13 204 6.4 9.7 0.00 0.00 0.00 58 1010.5
20260508190734 13 204 6.4 9.7 0.00 0.00 0.00 57 1010.4
20260508190230 13 232 8.0 9.7 0.00 0.00 0.00 56 1010.5